Terug naar catalogus

DELTA 1 DEB

ActiefSSO
NORAD 9293·DEBRIS·🇺🇸 United States

Gelanceerd Jan 22, 1975 vanaf Vandenberg Space Force Base

Loading…

Volgende Passages (komende 24 uur)

TLE

VersSource: Space-Track

Epoch: Sep 14, 2026, 02:06 UTC

1 09293U 75004DU  26257.08808100  .00000439  00000-0  96316-4 0  9991
2 09293  97.9658   3.1034 0076500 268.8983  90.3453 14.60673345655269

Volg DELTA 1 DEB in realtime met AllMySat

Download on the App Store